TimeCDT,TemperatureF,Dew PointF,Humidity,Sea Level PressureIn,VisibilityMPH,Wind Direction,Wind SpeedMPH,Gust SpeedMPH,PrecipitationIn,Events,Conditions,WindDirDegrees,DateUTC
12:10 AM,66.2,62.6,88,29.88,10.0,East,16.1,-,N/A,,Mostly Cloudy,90,2013-05-26 05:10:00
12:45 AM,64.4,60.8,88,29.87,10.0,East,18.4,-,N/A,,Overcast,100,2013-05-26 05:45:00
12:53 AM,64.9,60.1,84,29.83,9.0,East,15.0,27.6,N/A,,Overcast,100,2013-05-26 05:53:00
1:09 AM,64.4,60.8,88,29.88,9.0,East,13.8,24.2,N/A,,Overcast,100,2013-05-26 06:09:00
1:38 AM,62.6,59.0,88,29.87,8.0,East,12.7,-,N/A,,Overcast,90,2013-05-26 06:38:00
1:53 AM,63.0,59.0,87,29.81,7.0,East,16.1,-,N/A,,Overcast,90,2013-05-26 06:53:00
2:53 AM,61.0,59.0,93,29.79,5.0,East,15.0,25.3,N/A,,Overcast,100,2013-05-26 07:53:00
3:20 AM,59.0,57.2,94,29.87,2.0,ENE,23.0,29.9,N/A,,Overcast,70,2013-05-26 08:20:00
3:22 AM,57.2,57.2,100,29.87,1.5,ENE,20.7,29.9,N/A,,Overcast,70,2013-05-26 08:22:00
3:35 AM,57.2,57.2,100,29.86,0.5,East,24.2,28.8,N/A,Fog,Fog,80,2013-05-26 08:35:00
3:53 AM,57.0,55.9,96,29.83,0.2,East,19.6,26.5,N/A,Fog,Fog,80,2013-05-26 08:53:00
4:53 AM,55.9,55.0,97,29.83,0.2,East,18.4,24.2,N/A,Fog,Fog,90,2013-05-26 09:53:00
5:53 AM,55.0,54.0,96,29.88,0.2,ENE,17.3,28.8,N/A,Fog,Fog,70,2013-05-26 10:53:00
6:07 AM,53.6,53.6,100,29.93,0.2,ENE,23.0,28.8,0.00,Fog-Rain,Light Rain,60,2013-05-26 11:07:00
6:53 AM,54.0,54.0,100,29.90,0.2,East,20.7,28.8,0.00,Fog-Rain,Light Rain,100,2013-05-26 11:53:00
7:53 AM,57.0,57.0,100,29.89,0.5,East,17.3,25.3,0.00,Fog,Fog,90,2013-05-26 12:53:00
8:10 AM,57.2,57.2,100,29.92,1.2,East,17.3,-,N/A,,Overcast,90,2013-05-26 13:10:00
8:31 AM,57.2,57.2,100,29.91,2.5,East,17.3,-,N/A,,Overcast,100,2013-05-26 13:31:00
8:43 AM,59.0,57.2,94,29.90,4.0,ESE,19.6,29.9,N/A,,Overcast,110,2013-05-26 13:43:00
8:53 AM,59.0,57.9,96,29.88,5.0,East,20.7,26.5,N/A,,Overcast,100,2013-05-26 13:53:00
9:32 AM,59.0,57.2,94,29.94,6.0,ENE,16.1,-,N/A,,Overcast,70,2013-05-26 14:32:00
9:53 AM,59.0,57.0,93,29.93,10.0,ENE,15.0,-,N/A,,Overcast,70,2013-05-26 14:53:00
10:00 AM,59.0,57.2,94,29.96,10.0,East,15.0,-,N/A,,Overcast,80,2013-05-26 15:00:00
10:31 AM,57.2,57.2,100,29.92,3.0,ESE,18.4,-,0.00,Rain,Light Rain,110,2013-05-26 15:31:00
10:53 AM,57.9,55.9,93,29.90,9.0,ESE,19.6,31.1,0.00,,Overcast,120,2013-05-26 15:53:00
11:53 AM,61.0,57.9,90,29.90,10.0,ESE,18.4,-,N/A,,Overcast,110,2013-05-26 16:53:00
12:14 PM,60.8,57.2,88,29.94,10.0,East,13.8,21.9,N/A,,Overcast,80,2013-05-26 17:14:00
12:53 PM,60.1,57.0,90,29.91,7.0,East,15.0,-,N/A,,Overcast,90,2013-05-26 17:53:00
1:12 PM,60.8,57.2,88,29.93,3.0,East,16.1,-,N/A,,Overcast,100,2013-05-26 18:12:00
1:53 PM,60.1,57.9,93,29.90,9.0,East,16.1,-,N/A,,Overcast,100,2013-05-26 18:53:00
2:01 PM,60.8,57.2,88,29.92,9.0,East,13.8,-,N/A,,Overcast,90,2013-05-26 19:01:00
2:50 PM,62.6,57.2,82,29.90,10.0,East,16.1,-,N/A,Thunderstorm,Overcast,100,2013-05-26 19:50:00
2:53 PM,63.0,59.0,87,29.89,10.0,ESE,13.8,-,N/A,Thunderstorm,Overcast,110,2013-05-26 19:53:00
3:05 PM,62.6,59.0,88,29.90,10.0,East,13.8,-,N/A,,Overcast,100,2013-05-26 20:05:00
3:32 PM,64.4,60.8,88,29.90,10.0,East,12.7,-,N/A,,Overcast,100,2013-05-26 20:32:00
3:53 PM,66.0,60.1,81,29.88,10.0,ESE,16.1,-,N/A,,Overcast,120,2013-05-26 20:53:00
4:20 PM,68.0,60.8,78,29.88,10.0,SE,18.4,-,N/A,,Partly Cloudy,140,2013-05-26 21:20:00
4:53 PM,69.1,62.1,78,29.85,10.0,SE,19.6,-,N/A,,Clear,130,2013-05-26 21:53:00
5:53 PM,73.0,64.0,73,29.85,10.0,ESE,10.4,-,N/A,,Partly Cloudy,110,2013-05-26 22:53:00
6:53 PM,71.1,63.0,75,29.84,10.0,East,13.8,-,N/A,,Clear,90,2013-05-26 23:53:00
7:35 PM,69.8,62.6,78,29.86,10.0,ENE,16.1,-,N/A,,Mostly Cloudy,60,2013-05-27 00:35:00
7:53 PM,66.9,62.1,84,29.86,9.0,East,17.3,-,N/A,,Overcast,80,2013-05-27 00:53:00
8:22 PM,62.6,60.8,94,29.86,6.0,ENE,18.4,-,N/A,,Overcast,70,2013-05-27 01:22:00
8:35 PM,62.6,59.0,88,29.86,6.0,ENE,19.6,-,N/A,,Overcast,70,2013-05-27 01:35:00
8:46 PM,62.6,59.0,88,29.86,6.0,East,20.7,26.5,N/A,,Overcast,80,2013-05-27 01:46:00
8:53 PM,62.1,59.0,90,29.83,6.0,East,19.6,29.9,N/A,,Overcast,80,2013-05-27 01:53:00
9:42 PM,60.8,57.2,88,29.84,4.0,ENE,20.7,25.3,N/A,,Overcast,70,2013-05-27 02:42:00
9:48 PM,59.0,57.2,94,29.83,2.0,East,23.0,26.5,N/A,,Overcast,80,2013-05-27 02:48:00
9:53 PM,59.0,57.9,96,29.82,1.5,East,24.2,29.9,N/A,,Overcast,90,2013-05-27 02:53:00
10:09 PM,57.2,57.2,100,29.84,0.8,East,21.9,31.1,N/A,,Mist,90,2013-05-27 03:09:00
10:53 PM,57.0,57.0,100,29.89,0.5,East,15.0,-,N/A,Fog,Fog,80,2013-05-27 03:53:00
11:06 PM,57.2,55.4,94,29.89,1.2,ENE,13.8,-,N/A,,Overcast,70,2013-05-27 04:06:00
11:42 PM,55.4,55.4,100,29.86,2.5,ENE,15.0,-,N/A,,Overcast,70,2013-05-27 04:42:00
11:45 PM,55.4,55.4,100,29.87,1.8,ENE,13.8,-,N/A,,Overcast,70,2013-05-27 04:45:00
11:53 PM,55.9,55.0,97,29.86,0.8,ENE,13.8,-,N/A,,Mist,70,2013-05-27 04:53:00